Precipitable_Water
0.21 0.13 0.11 0.14 0.16 0.15 0.13 0.11 0.09 0.10 0.12 0.14 0.13 0.13 0.13 0.13 0.16 0.17 0.18 0.18 0.18 0.19 0.21 0.23 0.25 0.30 0.35 0.40 0.45 0.54 0.64 0.74 0.86 0.91 0.96 1.02 1.05 1.16 1.17 1.16 1.18 1.21 1.23 1.24
0.16 0.11 0.18 0.18 0.16 0.14 0.12 0.11 0.10 0.13 0.16 0.16 0.14 0.12 0.14 0.15 0.15 0.19 0.20 0.19 0.19 0.19 0.20 0.21 0.23 0.26 0.31 0.37 0.42 0.50 0.59 0.72 0.85 0.90 0.92 0.96 1.01 1.06 1.11 1.14 1.12 1.12 1.15 1.15
0.14 0.17 0.21 0.17 0.16 0.15 0.15 0.14 0.13 0.13 0.16 0.16 0.14 0.12 0.14 0.15 0.18 0.20 0.21 0.21 0.20 0.19 0.19 0.20 0.21 0.23 0.29 0.34 0.40 0.46 0.56 0.68 0.79 0.89 0.92 0.89 0.92 0.97 0.98 1.02 1.06 1.10 1.08 1.08
0.17 0.23 0.20 0.18 0.16 0.17 0.13 0.21 0.18 0.16 0.14 0.11 0.16 0.08 0.11 0.13 0.17 0.19 0.20 0.19 0.18 0.19 0.19 0.20 0.20 0.21 0.25 0.30 0.38 0.44 0.50 0.60 0.71 0.83 0.87 0.84 0.78 0.75 0.85 0.91 0.98 1.04 1.09 1.06
0.20 0.21 0.19 0.17 0.19 0.22 0.18 0.22 0.18 0.16 0.14 0.14 0.11 0.11 0.11 0.14 0.15 0.18 0.20 0.20 0.19 0.19 0.18 0.17 0.18 0.19 0.21 0.24 0.28 0.35 0.44 0.51 0.61 0.72 0.82 0.83 0.80 0.80 0.86 0.89 0.96 0.96 1.01 1.07
0.21 0.27 0.22 0.21 0.23 0.22 0.23 0.18 0.16 0.17 0.16 0.10 0.12 0.13 0.12 0.14 0.16 0.18 0.20 0.19 0.18 0.18 0.18 0.18 0.18 0.18 0.19 0.21 0.22 0.23 0.26 0.34 0.45 0.56 0.69 0.76 0.82 0.81 0.81 0.88 0.87 0.94 0.98 1.00
0.20 0.19 0.24 0.23 0.18 0.22 0.21 0.16 0.10 0.10 0.12 0.10 0.18 0.14 0.14 0.18 0.20 0.19 0.18 0.18 0.18 0.19 0.18 0.18 0.18 0.19 0.21 0.22 0.24 0.25 0.24 0.24 0.26 0.30 0.41 0.58 0.73 0.83 0.86 0.85 0.88 0.91 0.89 0.92
0.14 0.13 0.20 0.22 0.18 0.17 0.19 0.17 0.11 0.09 0.08 0.09 0.13 0.09 0.11 0.18 0.20 0.21 0.20 0.20 0.20 0.20 0.20 0.20 0.21 0.22 0.24 0.25 0.27 0.28 0.29 0.29 0.30 0.30 0.29 0.31 0.39 0.52 0.69 0.82 0.89 0.87 0.93 0.93
0.15 0.15 0.21 0.20 0.20 0.18 0.18 0.14 0.20 0.16 0.14 0.10 0.10 0.12 0.17 0.21 0.20 0.20 0.19 0.20 0.20 0.21 0.22 0.22 0.24 0.26 0.27 0.28 0.29 0.30 0.31 0.31 0.31 0.32 0.33 0.33 0.33 0.35 0.37 0.46 0.60 0.69 0.79 0.83
0.19 0.12 0.18 0.19 0.20 0.18 0.16 0.21 0.13 0.15 0.09 0.07 0.08 0.09 0.10 0.15 0.18 0.20 0.20 0.20 0.21 0.22 0.22 0.24 0.26 0.28 0.31 0.31 0.31 0.30 0.31 0.31 0.31 0.32 0.32 0.32 0.33 0.34 0.35 0.37 0.40 0.44 0.51 0.61
0.20 0.16 0.15 0.17 0.15 0.14 0.17 0.15 0.16 0.15 0.13 0.10 0.08 0.08 0.14 0.16 0.20 0.20 0.22 0.22 0.22 0.23 0.24 0.25 0.28 0.29 0.31 0.33 0.33 0.32 0.31 0.30 0.30 0.31 0.31 0.30 0.31 0.32 0.31 0.32 0.35 0.37 0.41 0.46
0.20 0.18 0.12 0.12 0.16 0.17 0.15 0.14 0.15 0.12 0.09 0.11 0.12 0.08 0.17 0.20 0.22 0.25 0.26 0.26 0.25 0.24 0.26 0.27 0.28 0.29 0.29 0.31 0.31 0.33 0.33 0.31 0.30 0.28 0.28 0.27 0.27 0.28 0.29 0.29 0.30 0.31 0.32 0.36
0.18 0.14 0.09 0.10 0.14 0.14 0.11 0.13 0.12 0.13 0.15 0.10 0.10 0.09 0.15 0.18 0.21 0.24 0.26 0.30 0.29 0.27 0.27 0.29 0.30 0.29 0.29 0.30 0.29 0.28 0.28 0.27 0.25 0.23 0.21 0.19 0.18 0.19 0.21 0.24 0.27 0.28 0.28 0.29
0.20 0.15 0.11 0.08 0.08 0.10 0.09 0.11 0.12 0.11 0.10 0.10 0.10 0.11 0.12 0.15 0.18 0.21 0.24 0.28 0.29 0.26 0.23 0.24 0.24 0.25 0.26 0.26 0.26 0.24 0.21 0.21 0.23 0.24 0.21 0.17 0.16 0.15 0.14 0.15 0.17 0.20 0.24 0.26
0.17 0.11 0.12 0.12 0.12 0.12 0.11 0.11 0.11 0.10 0.11 0.10 0.10 0.11 0.12 0.14 0.16 0.18 0.19 0.20 0.19 0.23 0.23 0.23 0.22 0.21 0.21 0.21 0.21 0.21 0.19 0.18 0.19 0.19 0.21 0.21 0.19 0.18 0.16 0.14 0.14 0.14 0.14 0.17
0.17 0.11 0.12 0.10 0.11 0.11 0.09 0.11 0.10 0.10 0.11 0.11 0.11 0.11 0.14 0.15 0.16 0.15 0.16 0.18 0.18 0.21 0.24 0.25 0.24 0.21 0.20 0.20 0.20 0.20 0.18 0.19 0.19 0.17 0.17 0.19 0.20 0.19 0.18 0.16 0.15 0.13 0.13 0.13
0.14 0.12 0.11 0.07 0.10 0.09 0.07 0.09 0.10 0.10 0.11 0.11 0.09 0.10 0.12 0.12 0.13 0.15 0.15 0.15 0.15 0.16 0.17 0.15 0.16 0.17 0.18 0.19 0.20 0.18 0.18 0.18 0.17 0.16 0.15 0.16 0.17 0.17 0.16 0.16 0.16 0.14 0.13 0.13
0.14 0.13 0.12 0.09 0.10 0.05 0.09 0.12 0.12 0.10 0.09 0.10 0.10 0.10 0.10 0.11 0.13 0.14 0.16 0.15 0.15 0.16 0.15 0.16 0.17 0.17 0.19 0.20 0.19 0.19 0.19 0.18 0.17 0.16 0.15 0.15 0.16 0.16 0.18 0.16 0.14 0.14 0.14 0.13
0.17 0.13 0.10 0.08 0.08 0.09 0.08 0.09 0.08 0.09 0.08 0.12 0.11 0.11 0.12 0.12 0.11 0.11 0.15 0.16 0.16 0.16 0.15 0.17 0.17 0.18 0.18 0.18 0.18 0.17 0.16 0.17 0.18 0.17 0.16 0.16 0.16 0.15 0.15 0.16 0.14 0.14 0.14 0.13
0.16 0.16 0.11 0.10 0.08 0.06 0.07 0.11 0.13 0.13 0.08 0.14 0.14 0.14 0.14 0.13 0.10 0.14 0.18 0.18 0.18 0.19 0.20 0.18 0.20 0.20 0.20 0.19 0.19 0.17 0.16 0.16 0.16 0.17 0.19 0.19 0.19 0.17 0.16 0.16 0.16 0.15 0.15 0.13
0.11 0.11 0.09 0.09 0.08 0.08 0.11 0.13 0.14 0.08 0.09 0.16 0.17 0.16 0.15 0.14 0.17 0.19 0.20 0.21 0.23 0.23 0.21 0.22 0.22 0.21 0.21 0.21 0.21 0.19 0.18 0.18 0.18 0.17 0.17 0.19 0.20 0.20 0.18 0.18 0.19 0.17 0.16 0.15
0.09 0.09 0.08 0.08 0.07 0.05 0.14 0.13 0.10 0.13 0.16 0.16 0.16 0.16 0.15 0.15 0.16 0.17 0.19 0.21 0.22 0.22 0.22 0.21 0.20 0.21 0.21 0.21 0.21 0.19 0.19 0.20 0.19 0.18 0.17 0.16 0.17 0.19 0.21 0.20 0.19 0.18 0.17 0.16
0.09 0.09 0.07 0.08 0.08 0.13 0.15 0.14 0.16 0.16 0.15 0.16 0.16 0.16 0.16 0.15 0.14 0.14 0.14 0.16 0.18 0.20 0.20 0.21 0.20 0.19 0.20 0.20 0.19 0.18 0.19 0.19 0.18 0.17 0.16 0.15 0.15 0.16 0.20 0.21 0.20 0.19 0.18 0.16
0.11 0.11 0.08 0.08 0.10 0.12 0.14 0.16 0.16 0.16 0.16 0.16 0.16 0.15 0.15 0.14 0.15 0.14 0.14 0.13 0.14 0.16 0.17 0.18 0.18 0.17 0.17 0.17 0.17 0.16 0.16 0.17 0.17 0.16 0.16 0.15 0.15 0.15 0.16 0.20 0.22 0.22 0.19 0.17
0.10 0.11 0.09 0.09 0.11 0.12 0.14 0.14 0.15 0.15 0.17 0.16 0.15 0.15 0.14 0.14 0.14 0.14 0.12 0.12 0.12 0.13 0.14 0.14 0.14 0.13 0.13 0.13 0.13 0.14 0.15 0.15 0.14 0.14 0.15 0.15 0.15 0.15 0.15 0.16 0.19 0.22 0.23 0.22
0.10 0.09 0.08 0.07 0.11 0.11 0.12 0.15 0.16 0.15 0.14 0.14 0.13 0.13 0.14 0.13 0.13 0.12 0.11 0.11 0.11 0.11 0.11 0.12 0.12 0.12 0.12 0.12 0.12 0.13 0.13 0.13 0.12 0.12 0.13 0.14 0.15 0.15 0.15 0.16 0.17 0.21 0.25 0.27
Wind_Speed
14 15 15 16 15 17 18 21 23 24 25 24 25 28 27 27 24 23 23 21 21 21 20 20 20 19 18 18 18 18 19 20 21 23 25 26 26 26 25 24 24 22 21 18
14 15 15 16 16 19 21 23 23 25 21 23 27 31 30 31 28 22 21 21 21 21 21 20 20 19 18 18 17 16 17 20 19 20 22 24 25 25 24 23 22 22 21 21
16 16 16 17 18 20 20 22 23 25 27 27 29 31 24 23 22 19 20 21 21 21 21 20 20 19 19 18 17 16 15 17 19 19 21 22 23 24 24 24 23 22 22 21
17 15 17 19 19 20 21 20 22 24 24 22 22 27 26 27 20 19 20 21 19 20 20 19 19 19 18 17 16 15 15 14 17 18 19 18 21 23 23 23 23 24 22 21
15 16 17 18 19 18 19 22 24 25 26 28 25 25 26 25 22 21 20 19 19 19 20 19 19 18 17 16 15 14 14 13 13 15 16 19 18 19 21 21 20 21 22 22
20 17 18 19 19 20 23 24 26 24 24 24 24 22 25 19 19 21 19 20 21 20 20 19 18 17 16 14 13 12 11 11 11 12 14 14 17 17 17 18 19 20 20 21
16 18 18 19 20 19 20 22 22 21 20 22 21 23 23 21 23 23 23 24 23 23 20 19 18 17 15 14 13 12 10 9 9 8 9 13 14 16 17 17 18 19 21 21
18 19 18 17 19 20 21 19 18 21 22 28 31 26 26 26 28 28 24 24 23 23 23 21 19 18 16 15 14 13 11 10 9 9 8 8 9 13 15 17 18 18 17 19
18 18 18 19 21 20 20 21 21 22 25 24 26 29 26 24 26 24 24 24 23 22 21 20 20 19 18 17 16 15 14 13 12 11 10 9 9 9 10 13 16 18 20 21
18 21 20 20 21 22 21 22 20 21 21 23 25 32 33 28 27 27 27 26 25 23 22 21 21 20 20 19 19 18 17 16 15 14 14 13 12 11 11 11 12 14 16 17
18 19 20 21 21 21 21 22 21 23 23 22 26 28 29 29 28 28 28 26 25 22 23 22 22 21 21 21 21 21 21 20 19 18 17 17 16 15 14 14 14 13 14 16
19 20 21 22 21 21 21 22 22 21 29 28 30 42 31 28 29 28 27 25 24 23 22 22 22 22 22 21 21 22 22 22 22 22 22 21 20 19 18 17 17 16 16 16
18 19 20 21 18 20 20 23 25 26 27 37 33 37 35 32 30 29 27 25 24 24 24 25 25 25 25 25 25 25 26 26 26 25 24 24 23 22 22 21 21 20 19 18
18 19 19 21 23 25 26 28 29 28 30 36 38 43 40 34 31 30 29 29 29 30 30 30 29 29 29 29 29 29 30 30 30 30 29 28 27 26 25 24 24 23 23 22
18 21 22 24 27 28 32 34 35 36 38 33 43 41 39 36 35 36 36 35 34 33 31 29 30 30 31 31 31 31 31 31 31 31 31 31 30 29 28 27 26 25 24 24
19 21 22 25 27 29 33 34 39 39 38 36 38 40 36 36 32 32 31 30 29 28 28 29 29 31 31 31 31 31 31 31 31 31 32 32 32 31 30 29 28 27 26 25
18 20 22 25 26 31 33 32 32 33 32 29 33 37 36 34 32 31 30 27 27 27 26 27 28 29 29 30 30 30 31 31 31 31 31 32 32 32 31 30 30 29 28 27
19 19 21 25 26 28 28 32 34 34 33 33 34 36 35 33 31 30 28 27 27 26 27 27 28 28 29 29 29 29 29 29 29 30 30 31 32 33 33 32 31 30 30 29
19 20 22 22 25 35 38 30 30 30 33 31 33 31 29 29 28 27 29 28 27 27 27 27 28 29 29 30 30 30 30 29 29 29 30 30 30 32 33 33 32 31 30 30
19 20 20 23 25 28 29 30 28 29 30 29 29 29 30 31 28 26 28 27 28 29 29 31 32 32 32 33 33 33 32 32 31 31 31 31 31 32 33 35 34 33 32 32
18 20 22 24 26 31 30 28 28 25 30 32 31 33 32 30 28 30 30 29 30 31 33 34 34 35 36 36 35 35 35 34 34 34 34 34 34 34 34 35 36 36 35 34
17 17 21 21 23 26 25 27 24 28 31 33 33 33 34 34 35 36 38 38 38 38 38 38 38 38 38 37 37 37 37 37 38 38 38 37 37 37 36 37 37 38 37 36
18 18 20 20 21 23 26 24 24 26 28 29 30 31 32 33 34 35 35 36 36 38 39 39 39 40 39 38 39 39 40 40 40 41 41 41 41 40 40 39 39 39 39 38
19 20 22 22 22 20 22 21 23 26 28 29 30 31 31 32 33 34 33 33 32 32 33 34 35 37 39 40 41 42 43 43 43 44 44 44 44 44 44 43 42 42 42 41
19 19 21 22 22 22 17 20 25 29 29 30 30 31 31 31 32 33 31 30 29 28 28 30 32 34 37 40 42 43 44 45 46 46 46 46 46 46 46 46 46 45 44 44
19 19 18 18 16 18 20 23 27 27 28 29 30 29 29 30 31 31 29 28 28 27 27 28 29 30 32 34 36 39 41 44 47 48 47 47 47 47 47 47 48 48 48 47
Wind_Direction
301 298 291 299 292 296 299 297 296 296 296 297 295 295 297 296 290 291 291 294 296 297 299 304 307 308 308 307 297 280 270 264 257 252 249 248 248 250 252 254 252 250 248 246
296 292 304 298 297 295 295 295 295 296 300 300 297 294 296 294 289 286 293 295 295 294 296 298 301 305 305 303 303 294 276 263 260 253 252 248 248 249 250 250 251 248 246 246
292 302 300 298 296 292 292 293 295 294 300 297 297 295 295 305 287 289 292 293 292 292 292 293 296 299 301 301 298 296 287 269 259 257 254 251 249 249 250 249 250 248 245 245
295 301 299 297 294 292 294 303 304 302 301 296 307 297 297 301 294 288 289 290 291 291 290 290 291 294 297 298 296 291 287 281 265 258 254 253 250 249 251 250 249 246 244 242
297 296 296 296 294 298 296 302 301 299 297 299 296 292 297 302 291 287 284 289 292 290 287 286 287 288 292 295 295 292 287 280 276 260 258 253 253 250 249 248 246 246 242 241
291 294 295 294 300 298 300 299 296 293 295 298 296 292 301 304 301 304 288 287 288 287 283 282 281 282 284 287 289 293 293 288 280 272 259 257 251 250 248 245 244 243 243 242
293 290 295 297 296 297 301 303 303 302 299 292 309 303 295 302 300 297 287 286 285 281 279 278 276 275 275 277 280 283 288 292 289 285 274 260 257 249 246 248 246 245 243 244
296 298 295 298 297 302 299 297 297 295 300 297 301 291 294 296 297 294 290 286 282 275 273 270 267 267 268 269 270 274 279 282 284 282 282 276 266 256 252 248 246 244 243 247
298 293 296 300 302 302 304 296 300 297 292 297 295 295 295 299 298 296 291 285 280 274 268 264 263 263 264 264 266 268 272 274 276 277 274 275 273 268 260 254 249 249 250 252
294 295 296 298 299 295 294 301 300 299 300 295 297 300 297 299 294 290 287 284 278 270 265 262 262 263 263 263 262 265 268 269 270 272 271 270 269 268 268 261 257 254 255 254
294 294 296 298 295 298 299 298 294 295 295 295 300 296 306 304 299 288 285 280 275 269 264 261 261 264 265 264 263 265 267 267 267 268 268 268 267 267 266 266 264 262 261 259
293 293 294 293 301 304 302 299 298 296 297 293 292 292 304 300 297 296 285 279 274 267 263 263 263 264 265 266 267 267 266 266 266 266 266 265 265 265 265 265 265 265 264 263
289 293 302 304 303 304 301 299 297 298 298 292 291 295 301 297 294 290 287 279 273 265 263 264 265 266 265 267 268 269 269 268 267 266 265 264 265 264 263 263 263 263 263 263
293 293 288 291 294 304 301 301 302 298 297 295 289 294 297 297 293 288 283 280 273 268 266 265 266 267 268 269 270 271 272 271 269 265 263 263 263 264 264 263 262 261 261 261
291 291 292 293 297 300 299 300 300 295 293 291 293 291 294 293 292 287 281 277 275 272 267 264 266 269 269 270 272 272 272 272 269 266 263 262 262 262 262 262 262 261 261 260
294 297 302 300 296 300 303 303 298 297 297 293 292 291 295 296 294 292 286 281 276 271 268 267 268 270 271 271 272 273 272 272 270 267 264 262 261 261 261 261 261 260 260 260
294 297 302 299 308 308 308 302 305 305 303 299 297 297 299 297 293 289 286 282 276 272 270 269 269 270 272 273 273 274 273 272 270 268 265 263 261 259 259 259 260 259 259 259
293 296 298 299 310 307 305 310 304 299 303 304 301 301 300 296 292 287 283 280 278 273 271 271 271 273 274 275 275 275 274 272 270 268 267 265 262 259 258 258 258 259 259 259
294 295 298 299 299 303 309 311 312 311 309 312 309 310 308 306 301 295 288 279 275 273 274 273 273 274 276 276 276 275 274 272 271 270 268 266 264 261 258 256 257 258 259 259
294 296 297 302 302 303 312 314 311 311 306 318 319 319 317 313 304 296 297 288 279 278 276 276 276 276 277 276 276 275 274 272 270 270 269 267 265 263 260 257 255 256 258 258
297 297 294 296 301 306 315 318 315 313 311 316 315 313 313 309 301 297 296 290 284 279 277 276 277 276 276 276 275 274 273 270 269 269 268 267 265 264 262 259 255 255 257 258
289 296 301 306 307 308 320 318 315 315 314 316 315 313 311 308 306 299 293 289 285 282 279 277 276 276 276 275 274 273 271 270 270 269 268 267 265 264 262 260 257 255 255 256
295 293 304 301 305 312 317 316 318 322 322 324 324 321 317 313 312 309 304 298 290 285 281 279 276 274 273 273 274 273 272 272 271 269 268 266 264 263 261 260 257 255 254 254
294 298 303 311 312 314 315 317 321 322 322 323 323 323 322 320 317 316 312 308 302 293 287 284 281 276 273 274 274 273 273 272 270 269 268 266 264 261 260 258 256 255 252 252
295 303 301 303 305 313 311 321 324 323 323 324 323 322 323 323 322 322 321 316 311 304 298 292 287 283 281 278 276 274 273 272 270 269 268 266 264 261 259 257 255 253 252 250
291 294 298 302 310 310 314 321 324 326 327 326 327 327 326 327 327 327 325 323 321 314 306 300 296 292 289 286 283 280 277 274 271 269 267 265 263 261 259 257 255 253 251 250